weather.gov     
National Weather Service

Miscellaneous Local Product
NWS Homepage
This page is being discontinued on March 12, 2014.
The same data is available at this site. Please update your bookmarks.
Thank you, and we apologize for the inconvenience.
Please send an email to SR-SRH.Webmaster@noaa.gov with any concerns.


Current Version
Previous Version:    01  02  03  04  05  06  07  08  09  10  11  12  13  14  15  16  17  18  19  20  21  22  23  24  25  26  27  28  29  30  
   31  32  33  34  35  36  37  38  39  40  41  42  43  44  45  46  47  48  49  50  51  52  53  54  55  56  57  58  59  60  
[Printable]
743
AXUS43 KLBF 301110
MISLBF


WESTERN AND NORTH CENTRAL NEBRASKA HOURLY WEATHER ROUNDUP
NATIONAL WEATHER SERVICE NORTH PLATTE NE
600 AM CDT TUE SEP 30 2014

***STATIONS NOT REPORTING VARIABLES SUCH AS SKY/WEATHER OR
PRESSURE ARE PROVIDED BY THE NEBRASKA DEPARTMENT OF
ROADS...RAWS...AND APRS NETWORKS...AND ARE NOT UNDER
NATIONAL WEATHER SERVICE QUALITY CONTROL***

...OBSERVATIONS IN AND NEAR THE EASTERN PANHANDLE OF NEBRASKA...

CITY           SKY/WX    TMP DP  RH WIND       PRES   REMARKS
PINE RIDGE     LGT RAIN  53  50  89 S10G20    29.39F
CHADRON        LGT RAIN  51  49  92 W35G48    29.43F
ALLIANCE       LGT RAIN  49  47  93 SW18      29.65
SIDNEY         CLOUDY    50  46  86 SW15      29.78R
WHITECLAY        N/A     50  48  90 S15         N/A
RUSHVILLE        N/A     50  45  83 W35         N/A
CRESCENT LAKE    N/A     49  46  90 SW13G20     N/A
LISCO            N/A     54  48  80 S6          N/A
BIG SPRINGS      N/A     51  48  89 SW5         N/A
$$

...OBSERVATIONS IN NORTH CENTRAL NEBRASKA...

CITY           SKY/WX    TMP DP  RH WIND       PRES   REMARKS
VALENTINE      CLEAR     60  55  83 SE21G28   29.63F
THEDFORD       MOCLDY    58  54  85 SW12G20   29.72R
AINSWORTH      CLOUDY    62  55  79 S17G23    29.69S
O`NEILL        TSTM      64  61  91 SE13G23   29.75F
ORD            CLOUDY    65  58  78 SE10      29.73F
BROKEN BOW     CLOUDY    63  58  83 S16G24    29.74S
SPRINGVIEW       N/A     64  57  79 E10G17      N/A
ROSE             N/A     68  63  82 E17         N/A
NEWPORT          N/A     65  61  85 SE14        N/A
SARGENT          N/A     63  59  86 SE3         N/A
COMSTOCK         N/A     70  62  77 S9          N/A
CHAMBERS         N/A     63  60  88 E6          N/A
EWING            N/A     61  58  91 E3          N/A
$$

...OBSERVATIONS IN SOUTHWEST NEBRASKA AND FAR NORTHEAST COLORADO...

CITY           SKY/WX    TMP DP  RH WIND       PRES   REMARKS
WRAY           FAIR      48  48 100 S5        29.82S
HOLYOKE        FAIR      52  46  82 S6        29.80S
IMPERIAL       PTCLDY    51  46  83 SW8       29.81R
OGALLALA       MOCLDY    50  48  92 SW3       29.76S
NORTH PLATTE   CLEAR     54  49  83 SW12      29.77R
MCCOOK         CLEAR     54  49  83 W13       29.81S
LEXINGTON      CLOUDY    62  59  88 SW15      29.78S
PAXTON           N/A     54  50  87 SW8         N/A
SUTHERLAND       N/A     49  45  87 SW14        N/A
BRADY            N/A     55  50  83 S5          N/A
GOTHENBURG       N/A     61  54  78 S6          N/A
CALLAWAY         N/A     59  57  92 S18         N/A
$$

...SOME WEATHER OBSERVATIONS FROM AROUND THE REGION...

CITY           SKY/WX    TMP DP  RH WIND       PRES   REMARKS
DENVER         PTCLDY    45  39  79 S9        29.83F
LARAMIE        CLOUDY    45  33  63 W21G29    29.86R
CHEYENNE       CLOUDY    50  37  61 W17       29.80R
SCOTTSBLUFF    LGT RAIN  51  49  92 W13       29.68S
RAPID CITY     LGT RAIN  53  52  96 N21G28    29.53F
PIERRE         LGT RAIN  58  56  93 SE25G33   29.65F
WINNER         FAIR      62  59  90 SE21      29.66F
SIOUX FALLS    MOCLDY    52  49  89 E14       29.89F
OMAHA          CLOUDY    64  58  80 SE6       29.90R
GRAND ISLAND   LGT RAIN  67  58  72 S20G26    29.81S
KANSAS CITY    MOCLDY    63  58  83 SE8       29.92S
WICHITA        MOCLDY    63  57  81 S8        29.90S
HAYS           CLOUDY    63  55  77 S10       29.86R
LIBERAL        PTCLDY    63  55  77 S10       29.87F
GOODLAND       MOCLDY    48  45  89 SW7       29.86F
$$




U.S. Dept. of Commerce
NOAA National Weather Service
1325 East West Highway
Silver Spring, MD 20910
E-mail: w-nws.webmaster@noaa.gov
Page last modified: May 16, 2007
NATIONAL WEATHER SERVICE: for Safety, for Work, for Fun - FOR LIFE